Погода в Чкалово

Украина / Херсонская область     46°28′47″N   34°10′57″E
темп.,
°C
ветер,
м/с
пор.,
м/с
влажн.,
%
обл.,
%
осадки,
мм/ч
давл.,
гПа
погр.,
м
16 июня, ср
ср1600:00+16юз37910 0.9 1009183
03:00+15зюз35935 1.3 101095
06:00+16юз249128 0.0 1010106
09:00+20ююз336627 0.0 10111067
12:00+23ююз33490 0.0 10111423
15:00+25юз32410 0.0 10101796
18:00+25з22405 0.0 10101608
21:00+20зсз4760100 0.0 1011107
17 июня, чт
чт1700:00+18ссз4775100 0.0 1010131
03:00+17ссз4976100 0.0 1010193
06:00+17ссв4795100 2.8 1010257
09:00+17с61295100 13.7 1010831
12:00+22ссв81282100 1.2 10101045
15:00+23всв81175100 3.1 10101067
18:00+23св6974100 0.5 10101155
21:00+19св61385100 0.7 1012639
18 июня, пт
пт1800:00+19св61290100 0.0 1012508
03:00+18св71292100 0.0 1011481
06:00+18всв7129237 0.0 1012602
09:00+21в91278100 0.4 10131130
12:00+21вюв91274100 0.4 10151066
15:00+23вюв9126398 0.5 10151483
18:00+22в8117053 0.1 10161216
21:00+20вюв61277100 0.2 1018502
19 июня, сб
сб1900:00+18всв3792100 0.6 1018218
03:00+18св499390 0.9 1017264
06:00+17всв59925 0.0 1017283
09:00+21всв56725 0.0 1017658
12:00+25всв565814 0.0 10161303
15:00+28в67470 0.0 10151679
18:00+26в7105842 0.0 10151304
21:00+23всв6136331 0.0 1015576
20 июня, вс
вс2000:00+20всв5118080 0.6 1015323
03:00+18св51284100 2.2 1014345
06:00+18всв61481100 2.6 1014392
09:00+22всв71265100 3.9 1013816
12:00+26в8952100 0.0 10131115
15:00+26в89521 0.0 10121122
18:00+25в68575 0.0 1012920
21:00+21в33760 0.0 101238